sat.trackr.live / text

‹ back to catalog

STARLINK-34839

NORAD 65703 · 2025-212AD

PAYLOAD ACTIVE UNKNOWN

§ Identity

Operator
Country
US
Launch date
2025-09-21
Launch site
AFETR
Launch vehicle
Mass (kg)
RCS (m²)

Purposes: comms

External: N2YO · Heavens-Above · Gunter

§ Orbital elements

Epoch: 2026-05-24T22:53:02.833728Z

Period
94.01 min
Inclination
53.1608°
Eccentricity
0.0001101
Mean motion
15.31708366 rev/d
Perigee alt
470.0 km
Apogee alt
471.5 km
Semi-major
6,848.9 km
B*
3.9851e-4
RAAN
351.1678°
Arg perigee
89.8340°
Mean anomaly
270.2787°
Rev number
3,892

§ Raw data

STARLINK-348391 65703U 25212AD  26144.95350502  .00012024  00000+0  39851-3 0  99962 65703  53.1608 351.1678 0001101  89.8340 270.2787 15.31708366 38927

JSON: /api/v1/satellites/65703 · /tle

For live sub-satellite position, see the globe view (requires WebGL).

§ Visibility from observer

Set your observer location to see the next 7 days of passes ≥ 10°. The values pass through the URL so the page stays shareable.

No JS? Fill the form by hand. The geolocation button needs JavaScript.